[Iaude] MPEC T39: 2023 TV [a=1.70,e=0.45,i=5.0,H=24.9]

mpec at marsden.cfa.harvard.edu mpec at marsden.cfa.harvard.edu
Fri Oct 6 01:12:35 EDT 2023


M.P.E.C. 2023-T39                               Issued 2023 October 6, 05:10 UT

     The Minor Planet Electronic Circulars contain information on unusual
         minor planets, routine data on comets and natural satellites,
         and occasional editorial announcements.  They are published
    on behalf of Division F of the International Astronomical Union by the
          Minor Planet Center, Smithsonian Astrophysical Observatory,
                          Cambridge, MA 02138, U.S.A.
			  
             Prepared using the Tamkin Foundation Computer Network

                              MPC at CFA.HARVARD.EDU
            URL https://www.minorplanetcenter.net/    ISSN 1523-6714

                                    2023 TV                                     


Observations:
     K23T00V* C2023 10 04.29175822 41 32.649-07 48 13.22         20.80wXET039F52
     K23T00V  C2023 10 04.31109322 41 43.452-07 45 38.84         20.86wXET039F52
     K23T00V  C2023 10 04.32080222 41 48.844-07 44 21.57         20.74wXET039F52
     K23T00V  C2023 10 04.44053122 42 55.118-07 28 28.48         20.55GVET039F51
     K23T00V  C2023 10 04.44117422 42 55.468-07 28 23.36         20.66GVET039F51
     K23T00V KC2023 10 05.16232622 49 47.896-05 57 45.32         20.44GVET039I52
     K23T00V KC2023 10 05.16337522 49 48.400-05 57 37.22         20.52GVET039I52
     K23T00V KC2023 10 05.16441522 49 48.965-05 57 29.95         20.83GVET039I52
     K23T00V KC2023 10 05.16545822 49 49.487-05 57 22.39         20.59GVET039I52
     K23T00V mC2023 10 05.16635722 49 49.922-05 57 16.24         20.66GVET039I52
     K23T00V mC2023 10 05.16709422 49 50.322-05 57 10.51         20.86GVET039I52
     K23T00V mC2023 10 05.16783122 49 50.689-05 57 05.65         20.82GVET039I52
     K23T00V mC2023 10 05.16857022 49 51.035-05 57 00.25         20.78GVET039I52
     K23T00V KC2023 10 05.16991922 49 51.21 -05 56 54.5          20.7 GXET039858
     K23T00V KC2023 10 05.17667822 49 54.65 -05 56 05.9          20.6 GXET039858
     K23T00V  C2023 10 05.23397822 50 24.457-05 49 10.63         20.9 GVET039654
     K23T00V  C2023 10 05.24199622 50 28.452-05 48 12.99         20.9 GVET039654
     K23T00V  C2023 10 05.30464922 50 59.585-05 40 43.27         20.8 GVET039654
     K23T00V  C2023 10 05.31266822 51 03.570-05 39 45.87         20.8 GVET039654
     K23T00V KC2023 10 06.16738522 58 15.61 -04 03 06.0          21.6 VuET039H21
     K23T00V KC2023 10 06.17440022 58 18.75 -04 02 20.6          21.3 VuET039H21

Observer details:
654 Table Mountain Observatory, Wrightwood-PHMC.  Observers N. Evans, P. Choi,
    N. Saini, C. Zhai, R. Trahan, M. Shao.  1.0-m Reflector + CCD.
858 Tebbutt Observatory, Edgewood.  Observer F. B. Zoltowski.  0.51-m f/8.1
    Schmidt-Cassegrain + CCD.
F51 Pan-STARRS 1, Haleakala.  Observers J. Bulger, K. Chambers, T. Lowe, P.
    Minguez, A. Schultz, I. Smith.  Measurers S. Chastel, J. Fairlamb, M.
    Huber, Y. Ramanjooloo, R. Wainscoat, R. Weryk.  1.8-m Ritchey-Chretien +
    CCD.
F52 Pan-STARRS 2, Haleakala.  Observers J. Bulger, T. Lowe, P. Minguez, A.
    Schultz, I. Smith.  Measurers K. Chambers, T. de Boer, J. Bulger, J.
    Fairlamb, H. Gao, M. Huber, C.-C. Lin, T. Lowe, E. Magnier, P. Minguez, Y.
    Ramanjooloo, A. Schultz, I. Smith, R. Wainscoat, R. Weryk.  1.8-m Ritchey-
    Chretien + CCD.
H21 Astronomical Research Observatory, Westfield.  Observer R. Holmes.
    Measurers T. Linder, R. Holmes, L. Horn.  0.81-m f/4.0 astrograph + CCD.
I52 Steward Observatory, Mt. Lemmon Station.  Observer D. Rankin.  Measurers
    E. C. Beshore, D. Fay, J. B. Fazekas, D. C. Fuls, A. R. Gibbs, A. D.
    Grauer, H. Groeller, J. K. Hogan, R. A. Kowalski, S. M. Larson, G. J.
    Leonard, D. Rankin, R. L. Seaman, F. C. Shelly, K. W. Wierzchos.  1.0-m
    prime focus + CCD.

Orbital elements:
2023 TV                                                  Earth MOID = 0.0193 AU
Epoch 2023 Sept. 13.0 TT = JDT 2460200.5                Veres                   
M  10.94754              (2000.0)            P               Q                  
n   0.44569229     Peri.  305.06413     +0.68030762     +0.73282932             
a   1.6973809      Node     7.83711     -0.64069510     +0.60253450             
e   0.4544040      Incl.    5.02631     -0.35593726     +0.31609075             
P   2.21           H   24.96          G   0.15           U   9                  
Residuals in seconds of arc
231004 F52  0.1-  0.1+    231005 I52  0.3+  0.2+    231005 858  0.3+  0.6-
231004 F52  0.1-  0.0     231005 I52  0.3+  0.2+    231005 654  0.0   0.1-
231004 F52  0.2-  0.2-    231005 I52  0.0   0.1-    231005 654  0.0   0.1-
231004 F51  0.1+  0.1+    231005 I52  0.4+  0.3+    231005 654  0.1-  0.1-
231004 F51  0.0   0.1+    231005 I52  0.4+  0.2-    231005 654  0.1-  0.1-
231005 I52  0.1+  0.0     231005 I52  0.0   0.2-    231006 H21  0.1-  0.1+
231005 I52  0.3-  0.5+    231005 858  0.3-  0.3-    231006 H21  0.1+  0.2+

Ephemeris:
2023 TV                  a,e,i = 1.70, 0.45, 5                   q = 0.9261
Date    TT    R. A. (2000) Decl.     Delta      r    Elong.  Phase     V
2023 09 06    14 12 57.6 -33 09 54   0.1377  0.9497    61.3   111.4    24.8
...
2023 09 21    17 32 49.3 -42 53 10   0.06267 1.0034    87.4    89.0    22.1
...
2023 09 29    21 24 19.6 -23 19 35   0.05997 1.0418   130.4    47.1    20.7
...
2023 10 05    22 48 17.0 -06 16 36   0.08439 1.0741   149.9    27.9    21.0
2023 10 06    22 56 54.6 -04 20 17   0.08970 1.0797   151.6    26.2    21.1
2023 10 07    23 04 34.7 -02 36 37   0.09526 1.0854   152.9    24.8    21.2
...
2023 10 13    23 37 00.7 +04 32 46   0.1323  1.1207   156.6    20.7    21.8
...
2023 10 21    00 01 35.6 +09 23 32   0.1887  1.1703   155.7    20.5    22.7
...
2023 11 05    00 28 44.0 +13 20 31   0.3119  1.2684   148.6    24.0    24.1

M. P. C. Staff               (C) Copyright 2023 MPC           M.P.E.C. 2023-T39





More information about the Iaude mailing list